Wind_Speed
38 43 49 56 65 71 71 69 68 71 81 92 100 102 101 96 89 84 80 74 72 74 76 76 73 69 65 61 59 56 54 52 49 49 54 56 56 54
34 39 45 51 59 67 70 68 66 67 73 84 95 101 101 98 93 87 83 79 74 73 74 75 74 71 67 64 61 57 54 53 52 52 55 58 59 57
31 35 40 46 53 62 67 67 65 63 66 74 86 96 100 96 93 90 87 82 78 75 74 74 74 72 69 67 64 61 58 54 52 52 55 58 61 61
29 32 36 41 48 56 62 64 63 61 61 66 76 86 94 93 90 90 89 85 81 77 75 74 73 72 70 68 66 64 62 58 56 54 52 52 56 59
27 29 33 38 43 50 56 59 60 58 57 61 68 78 86 90 88 88 89 86 84 80 76 74 73 72 70 69 67 66 64 62 59 57 54 51 51 53
25 27 31 35 40 45 51 54 55 55 54 57 64 72 79 84 85 86 87 87 85 82 79 76 73 72 70 69 67 66 65 63 61 58 56 52 49 49
23 26 30 33 37 42 46 48 50 50 50 53 60 69 77 80 81 82 84 85 85 84 82 79 74 71 69 69 68 67 65 64 61 59 58 55 52 49
22 26 29 32 35 38 41 43 44 44 44 48 55 67 78 82 81 82 82 83 84 83 82 80 76 73 70 68 68 67 66 65 63 61 59 57 55 52
21 25 29 32 34 36 38 38 39 38 39 41 48 62 77 87 84 82 83 83 83 83 81 79 77 74 72 68 67 68 68 67 65 63 61 59 57 55
20 25 29 31 33 34 35 35 34 34 34 36 41 54 73 87 90 86 82 84 84 82 80 77 76 74 72 69 66 66 67 67 67 65 63 61 60 58
18 25 29 31 32 33 33 32 32 31 31 32 35 43 61 79 91 90 85 84 84 82 79 75 73 72 70 67 65 64 64 65 66 65 64 62 60 58
17 24 29 31 33 33 32 31 30 29 29 30 33 38 48 65 83 91 90 85 83 81 79 74 71 70 69 67 64 61 61 62 62 62 62 61 60 58
14 22 28 31 32 32 31 30 28 27 27 27 30 35 41 52 67 82 88 87 83 79 77 75 70 68 67 66 64 62 60 58 58 59 59 59 58 57
11 20 26 30 31 32 32 30 28 26 25 24 26 31 37 45 55 67 79 83 82 78 74 72 70 67 65 65 63 62 60 58 57 56 56 56 56 56
8 16 24 29 31 32 32 30 29 27 25 23 24 27 32 39 48 57 67 74 77 74 71 68 67 64 61 61 61 60 59 58 57 56 56 55 54 54
5 13 21 27 31 32 32 31 30 28 26 24 23 24 28 33 41 51 59 65 69 69 68 66 65 64 61 59 58 57 56 55 54 54 54 54 54 54
2 8 17 25 30 32 33 32 31 29 28 25 24 24 26 30 36 44 53 60 63 65 65 65 65 64 62 59 57 57 57 55 54 54 55 55 54 55
7 2 11 20 27 32 33 34 33 32 30 28 26 26 26 28 32 39 47 55 60 63 63 63 63 63 61 60 58 58 57 56 57 57 57 57 57 57
14 6 4 13 23 29 33 35 35 34 32 31 29 28 28 29 31 36 43 50 56 60 61 62 61 60 59 58 58 58 58 57 57 58 59 59 59 59
27 14 5 5 15 25 31 35 37 36 35 34 32 31 30 30 31 34 40 47 52 56 60 62 61 60 60 59 59 59 59 58 57 58 59 60 60 60
39 27 15 5 6 17 27 33 37 39 38 37 36 34 33 33 33 34 38 43 48 53 58 60 60 60 60 60 59 59 59 59 58 57 57 57 55 54
43 38 28 16 5 6 18 28 35 39 41 41 40 38 38 37 37 37 38 41 45 49 53 56 57 57 58 57 56 56 55 55 54 54 52 51 48 46
43 40 36 28 17 6 6 19 29 37 41 43 43 43 42 41 41 41 41 42 45 47 49 51 54 56 57 56 55 53 52 51 49 48 46 44 42 40
Wind_Direction
243 234 228 224 220 218 217 217 218 221 220 217 215 214 215 216 217 217 217 218 218 219 221 221 222 222 221 222 224 225 226 227 228 226 225 224 224 224
242 233 227 222 219 216 216 216 216 218 221 219 217 215 215 215 216 217 217 217 217 218 220 221 222 221 221 221 223 224 225 226 227 227 225 225 225 226
239 232 225 221 218 215 214 215 215 216 218 220 218 216 215 215 216 217 218 217 217 218 219 221 222 222 221 221 221 223 224 225 224 225 225 226 227 227
235 228 222 218 215 213 213 213 214 214 216 218 219 217 215 213 214 216 217 217 217 217 218 220 221 222 221 220 220 222 224 226 226 225 225 224 227 228
229 224 218 215 212 211 211 211 213 214 215 216 217 216 214 212 212 214 216 217 217 216 217 219 220 222 222 221 221 222 224 226 228 230 230 228 227 228
221 217 213 210 208 207 208 209 212 214 215 215 215 214 212 210 211 211 212 215 216 216 216 217 219 221 222 222 221 222 223 226 228 231 232 234 232 231
213 210 207 204 203 204 205 207 210 214 216 216 214 212 208 206 208 209 210 212 215 216 216 217 218 220 221 221 221 222 223 225 227 230 232 235 235 235
207 204 201 199 199 200 201 204 208 212 216 216 214 211 207 203 202 204 206 208 211 213 215 216 217 218 219 221 221 222 223 224 226 229 232 234 236 237
202 199 197 195 195 196 198 201 206 210 214 216 215 210 206 203 200 199 202 206 208 210 212 214 216 218 219 220 220 221 222 223 225 228 231 234 236 238
199 196 193 193 193 193 195 198 203 208 212 215 214 211 207 206 203 199 199 203 206 207 209 211 214 216 218 218 219 220 222 223 225 227 230 234 237 239
198 195 192 192 192 192 194 197 201 206 211 213 212 212 209 207 208 204 201 201 203 205 207 208 210 213 215 216 217 219 221 222 224 226 229 233 236 238
199 195 193 192 193 192 193 195 199 205 209 213 212 210 209 208 208 209 206 204 204 205 205 207 209 211 212 214 215 217 219 221 223 225 228 231 235 238
201 197 195 194 194 193 193 195 198 202 206 209 209 207 206 206 207 209 209 208 206 207 208 209 209 211 213 214 214 216 218 220 222 224 227 230 233 236
205 200 198 197 197 195 194 195 196 198 200 203 205 204 203 203 204 206 208 209 209 209 208 210 211 213 215 216 216 217 218 220 222 225 228 230 233 235
209 204 202 201 200 198 196 195 195 195 195 197 198 199 200 199 199 200 203 206 208 208 208 209 212 212 216 219 219 220 222 223 224 226 228 230 233 235
216 207 205 205 204 202 199 198 196 194 193 194 193 194 197 197 196 196 198 201 205 206 207 208 210 210 211 215 217 218 220 223 225 228 229 230 232 234
316 212 208 207 207 205 203 200 197 195 194 193 191 190 192 193 194 194 194 196 199 201 203 205 207 208 209 212 216 218 219 221 224 227 230 231 233 235
10 254 213 210 209 208 206 204 201 198 196 194 192 190 190 190 192 193 193 193 195 198 200 203 205 207 209 211 214 219 221 222 223 225 226 228 230 233
23 10 234 214 211 210 209 207 204 201 198 196 193 191 189 188 189 192 192 192 193 196 198 200 202 205 207 209 214 216 219 221 221 222 224 226 229 232
30 26 14 229 215 212 211 209 207 204 201 198 195 193 190 188 186 188 191 192 191 193 194 196 199 201 205 208 212 215 217 220 222 224 225 228 231 234
32 32 28 17 224 215 212 211 209 207 205 202 199 196 193 191 188 187 189 191 191 191 192 194 198 202 205 208 212 216 218 220 223 225 227 230 233 235
31 32 32 29 21 222 215 213 212 210 208 206 203 200 197 195 193 190 188 189 192 192 194 195 198 201 204 206 209 213 216 219 222 225 227 229 231 233
29 30 31 31 30 22 222 216 214 213 211 209 207 204 201 199 196 195 193 192 192 194 196 197 200 201 203 203 205 207 209 211 214 217 219 222 225 227
Height
5345 5351 5358 5368 5379 5393 5408 5422 5434 5445 5459 5476 5493 5509 5526 5545 5562 5577 5592 5606 5618 5630 5642 5653 5665 5678 5689 5700 5709 5717 5725 5732 5740 5747 5754 5761 5768 5774
5333 5338 5345 5354 5365 5378 5393 5407 5420 5432 5444 5459 5474 5491 5509 5529 5546 5563 5578 5592 5605 5617 5629 5641 5653 5665 5678 5689 5699 5707 5715 5722 5729 5736 5743 5750 5758 5765
5322 5327 5334 5343 5353 5366 5379 5394 5408 5421 5433 5444 5458 5475 5494 5514 5532 5548 5563 5578 5591 5604 5616 5628 5640 5653 5665 5678 5689 5698 5707 5713 5720 5725 5730 5739 5747 5755
5312 5318 5325 5333 5343 5355 5368 5382 5397 5410 5422 5432 5443 5460 5480 5500 5517 5533 5549 5563 5578 5591 5604 5616 5628 5640 5653 5666 5677 5688 5697 5705 5712 5717 5723 5730 5737 5744
5304 5310 5317 5325 5335 5346 5359 5373 5387 5400 5412 5422 5432 5447 5466 5486 5502 5518 5534 5549 5564 5577 5591 5603 5616 5629 5641 5654 5665 5677 5687 5696 5704 5710 5715 5721 5728 5735
5298 5304 5311 5319 5328 5339 5351 5364 5377 5390 5401 5411 5421 5435 5453 5471 5487 5503 5520 5536 5550 5564 5577 5591 5604 5616 5629 5642 5655 5666 5676 5684 5692 5700 5706 5712 5718 5725
5294 5300 5306 5314 5323 5333 5345 5357 5369 5380 5391 5400 5410 5422 5439 5457 5474 5489 5506 5521 5535 5550 5565 5579 5593 5606 5617 5629 5641 5653 5664 5673 5682 5690 5696 5702 5708 5715
5291 5297 5303 5311 5320 5330 5340 5351 5362 5372 5381 5389 5398 5410 5425 5442 5459 5474 5490 5506 5523 5540 5553 5566 5579 5593 5605 5618 5630 5641 5652 5662 5671 5679 5686 5693 5699 5705
5290 5295 5302 5309 5318 5327 5336 5346 5356 5364 5373 5380 5388 5397 5411 5428 5445 5463 5477 5492 5510 5525 5540 5554 5567 5580 5593 5606 5617 5628 5639 5650 5660 5668 5676 5683 5689 5695
5290 5295 5301 5308 5316 5325 5334 5343 5351 5359 5366 5373 5380 5388 5399 5413 5430 5448 5463 5480 5497 5512 5526 5541 5554 5568 5581 5593 5604 5616 5627 5638 5648 5657 5664 5672 5679 5686
5290 5295 5301 5308 5315 5323 5332 5340 5348 5354 5360 5367 5373 5380 5389 5402 5417 5434 5451 5467 5484 5500 5515 5529 5543 5556 5568 5580 5592 5604 5615 5625 5635 5645 5653 5661 5668 5675
5291 5295 5301 5307 5314 5322 5330 5338 5345 5351 5357 5363 5368 5374 5382 5392 5405 5420 5438 5455 5472 5489 5503 5519 5532 5545 5557 5568 5581 5593 5603 5613 5623 5633 5641 5649 5657 5664
5292 5296 5301 5307 5314 5321 5328 5336 5342 5349 5354 5359 5365 5370 5377 5386 5397 5411 5427 5445 5462 5480 5495 5509 5524 5536 5549 5560 5571 5582 5593 5603 5613 5621 5630 5638 5646 5653
5293 5296 5301 5307 5314 5320 5327 5334 5340 5347 5352 5357 5362 5367 5373 5382 5391 5404 5419 5436 5454 5472 5487 5501 5516 5530 5542 5552 5563 5573 5583 5594 5603 5612 5620 5628 5635 5641
5293 5296 5301 5307 5313 5319 5326 5332 5339 5345 5351 5356 5360 5365 5371 5378 5387 5398 5412 5429 5446 5463 5478 5493 5507 5520 5532 5544 5556 5566 5575 5584 5593 5601 5609 5617 5624 5631
5294 5297 5300 5306 5312 5318 5325 5331 5337 5343 5349 5354 5359 5364 5370 5376 5384 5394 5407 5422 5438 5454 5469 5483 5496 5509 5522 5533 5544 5555 5564 5574 5582 5590 5598 5605 5612 5618
5296 5297 5300 5304 5310 5316 5323 5329 5336 5342 5348 5353 5358 5364 5369 5375 5382 5391 5402 5415 5430 5445 5459 5472 5485 5498 5511 5522 5532 5542 5553 5562 5570 5578 5586 5593 5600 5607
5298 5298 5299 5303 5308 5314 5320 5327 5333 5340 5346 5352 5357 5363 5368 5374 5381 5388 5398 5409 5423 5437 5451 5464 5477 5489 5501 5512 5521 5531 5540 5549 5558 5566 5573 5581 5588 5595
5301 5299 5300 5302 5305 5311 5317 5324 5331 5337 5344 5350 5356 5361 5367 5373 5379 5386 5395 5404 5416 5429 5443 5456 5469 5481 5492 5502 5510 5519 5529 5537 5545 5553 5561 5569 5576 5583
5305 5302 5301 5302 5304 5308 5314 5320 5327 5334 5341 5347 5354 5360 5366 5372 5378 5385 5392 5401 5411 5423 5435 5448 5460 5472 5483 5493 5501 5509 5517 5526 5534 5542 5549 5556 5564 5571
5313 5307 5304 5303 5303 5306 5310 5316 5323 5330 5337 5344 5351 5357 5364 5370 5377 5383 5390 5398 5407 5417 5429 5440 5451 5462 5473 5482 5490 5498 5507 5514 5523 5531 5538 5546 5554 5561
5321 5315 5309 5306 5304 5305 5307 5312 5318 5325 5332 5340 5347 5354 5361 5368 5375 5381 5388 5396 5404 5413 5423 5433 5443 5452 5462 5471 5480 5488 5497 5505 5513 5521 5529 5537 5544 5552
5329 5323 5316 5311 5307 5306 5306 5309 5313 5319 5326 5334 5341 5349 5357 5364 5371 5378 5386 5393 5401 5409 5418 5427 5436 5445 5453 5462 5471 5479 5487 5496 5504 5512 5520 5528 5535 5542